Location: Albuquerque Trailhead
(34.7934°N, 106.3736°W)
Time: 00:23:32
(UTC+00:00)

ERBS - Pass Details

Date: 20 June 2021
Orbit: 397 x 417 km, 57.0° (Epoch: 27 July)

Event Time Altitude Azimuth Distance (km) Brightness Sun altitude
Exits shadow 10:07:24 18° 300° (WNW) 1,058 4.1 -17.8°
Maximum altitude 10:08:07 19° 318° (NW) 1,015 4.2 -17.7°
Drops below altitude 10° 10:10:32 10° 7° (N) 1,447 5.7 -17.3°
Sets 10:13:00 0° 26° (NNE) 2,311 7.4 -17.0°
